Regional Weather Roundup
Issued by NWS

Home | Current Version | Previous Version | Graphics & Text | Print | Product List | Glossary On
Versions: 1 2 3 4 5 6 7 8 9 10 11 12 13 14 15 16 17 18 19 20 21 22 23 24 25 26 27 28 29 30 31 32 33 34 35 36 37 38 39 40 41 42 43 44 45 46 47 48 49 50
000
ASUS43 KIND 011209
RWRIN

WEATHER ROUNDUP FOR INDIANA
NATIONAL WEATHER SERVICE INDIANAPOLIS IN
800 AM EDT FRI AUG 01 2014

NOTE: "FAIR" INDICATES FEW OR NO CLOUDS BELOW 12,000 FEET WITH NO
SIGNIFICANT WEATHER AND/OR OBSTRUCTIONS TO VISIBILITY.

* - STATION DOES NOT REPORT WEATHER SUCH AS PRECIPITATION OR FOG.

+ - STATION NOT QUALITY CONTROLLED BY THE NATIONAL WEATHER SERVICE.
    USE DATA WITH CAUTION...ESPECIALLY DEWPOINT AND RELATIVE
    HUMIDITY OBSERVATIONS.

INZ001>003-010>013-019-020-011300-
NORTHWEST INDIANA

CITY           SKY/WX    TMP DP  RH WIND       PRES   REMARKS
GARY /AIRPORT/ PTSUNNY   66  63  88 SW5       30.09R FOG
KNOX *+        SUNNY     59  57  92 CALM      30.10R
LA PORTE +     SUNNY     59  59 100 CALM      30.11R FOG
6HR MIN TEMP:  55; 6HR MAX TEMP:  60;

MICHIGAN CITY+ SUNNY     61  61 100 CALM      30.09S FOG
MONTICELLO +   SUNNY     59  58  96 CALM      30.11R
RENSSELAER +   SUNNY     59  59 100 CALM      30.11R FOG
VALPARAISO     SUNNY     62  60  93 SW3       30.10R FOG
6HR MIN TEMP:  59; 6HR MAX TEMP:  65;


$$

LMZ046-743>745-011300-
SOUTHERN LAKE MICHIGAN

STATION/POSITION TIME  TEMP WIND        PRES
                       AIR  DIR/SP/G
                 (UTC) (F)  (DEG/KT/KT) (MB)
MICHIGAN CITY    1200   67  170/  6/  7   N/A

$$

INZ004-005-014>016-021>024-011300-
NORTH CENTRAL INDIANA

CITY           SKY/WX    TMP DP  RH WIND       PRES   REMARKS
GOSHEN         SUNNY     64  60  87 S3        30.11R FOG
6HR MIN TEMP:  62; 6HR MAX TEMP:  65;

LOGANSPORT +   SUNNY     57  55  94 CALM      30.12S FOG
PERU/GRISSOM   SUNNY     61  61 100 CALM      30.12R
6HR MIN TEMP:  58; 6HR MAX TEMP:  63;

ROCHESTER +    SUNNY     66  63  88 CALM      30.12R
SOUTH BEND     SUNNY     64  60  87 CALM      30.10R
6HR MIN TEMP:  62; 6HR MAX TEMP:  66;

WARSAW +       SUNNY     61  59  94 CALM      30.11S FOG

$$

INZ006>009-017-018-025>027-011300-
NORTHEAST INDIANA

CITY           SKY/WX    TMP DP  RH WIND       PRES   REMARKS
ANGOLA *+      SUNNY     61  59  94 CALM      30.11R
AUBURN +       SUNNY     63  59  88 CALM      30.13R
FORT WAYNE     SUNNY     62  59  90 S3        30.13R
6HR MIN TEMP:  60; 6HR MAX TEMP:  64;

HUNTINGTON +   SUNNY     62  60  93 CALM      30.12S
6HR MIN TEMP:  58; 6HR MAX TEMP:  64;


$$

INZ028-029-035-036-043>045-051>053-011300-
WEST CENTRAL INDIANA

CITY           SKY/WX    TMP DP  RH WIND       PRES   REMARKS
GREENCASTLE +  SUNNY     61  59  94 CALM      30.12S FOG
LAFAYETTE      MOSUNNY   59  58  96 CALM      30.11R
6HR MIN TEMP:  56; 6HR MAX TEMP:  62;

TERRE HAUTE    SUNNY     61  59  93 CALM      30.11R
6HR MIN TEMP:  56; 6HR MAX TEMP:  61;


$$

INZ030>032-037>040-046>048-054>057-064-065-011300-
CENTRAL INDIANA

CITY           SKY/WX    TMP DP  RH WIND       PRES   REMARKS
CP ATTERBURY + SUNNY     59  55  88 CALM      30.13R
COLUMBUS       SUNNY     59  59 100 CALM      30.12S FOG
INDIANAPOLIS   MOSUNNY   65  61  87 CALM      30.12R
6HR MIN TEMP:  61; 6HR MAX TEMP:  68;

-EAGLE CREEK   SUNNY     63  61  93 CALM      30.11S FOG
6HR MIN TEMP:  60; 6HR MAX TEMP:  64;

KOKOMO *+      SUNNY     57  55  94 S3        30.12S
MARION +         N/A     57  56  97 CALM      30.14R
MT COMFORT *+    N/A     59 N/A N/A CALM      30.13R
SHELBYVILLE    SUNNY     62  59  90 CALM      30.12R FOG
6HR MIN TEMP:  59; 6HR MAX TEMP:  63;

ZIONSVILLE +   SUNNY     59  57  91 CALM      30.13R FOG
6HR MIN TEMP:  57; 6HR MAX TEMP:  60;


$$

INZ033-034-041-042-049-050-058-059-011300-
EAST CENTRAL INDIANA

CITY           SKY/WX    TMP DP  RH WIND       PRES   REMARKS
MUNCIE         SUNNY     62  57  83 CALM      30.13R
6HR MIN TEMP:  57; 6HR MAX TEMP:  62;


$$

INZ060-061-067>069-081>083-085>088-011300-
SOUTHWEST INDIANA

CITY           SKY/WX    TMP DP  RH WIND       PRES   REMARKS
EVANSVILLE     SUNNY     64  61  90 CALM      30.10R FOG
6HR MIN TEMP:  63; 6HR MAX TEMP:  67;

WASHINGTON +   FOG       59  59 100 NW3       30.10S VSB 1/4
6HR MIN TEMP:  56; 6HR MAX TEMP:  61;


$$

INZ062-063-066-070>080-084-089>092-011300-
SOUTH CENTRAL AND SOUTHEAST INDIANA

CITY           SKY/WX    TMP DP  RH WIND       PRES   REMARKS
BLOOMINGTON    SUNNY     59  57  93 CALM      30.12R FOG
6HR MIN TEMP:  58; 6HR MAX TEMP:  61;

NORTH VERNON + SUNNY     61  61 100 CALM      30.12S FOG

$$



USA.gov is the U.S. government's official web portal to all federal, state and local government web resources and services.